Regional Weather Roundup
Issued by NWS

Home | Current Version | Previous Version | Graphics & Text | Print | Product List | Glossary On
Versions: 1 2 3 4 5 6 7 8 9 10 11 12 13 14 15 16 17 18 19 20 21 22 23 24 25 26 27 28 29 30 31 32 33 34 35 36 37 38 39 40 41 42 43 44 45 46 47 48 49 50
000
ASUS43 KBIS 220410
RWRND

NORTH DAKOTA REGIONAL WEATHER ROUNDUP
NATIONAL WEATHER SERVICE BISMARCK ND
1100 PM CDT TUE OCT 21 2014

NOTE: "FAIR" INDICATES FEW OR NO CLOUDS BELOW 12,000 FEET WITH NO
SIGNIFICANT WEATHER AND/OR OBSTRUCTIONS TO VISIBILITY.


NDZ001>003-009>011-017-220500-
NORTHWEST NORTH DAKOTA

CITY           SKY/WX    TMP DP  RH WIND       PRES   REMARKS
WILLISTON      PTCLDY    46  40  79 CALM      29.60R
MINOT          CLEAR     67  44  43 S20G31    29.58F
MINOT AFB      CLEAR     56  48  76 S10       29.58F
$$

NDZ018>021-031>035-040>046-220500-
SOUTHWEST NORTH DAKOTA

CITY           SKY/WX    TMP DP  RH WIND       PRES   REMARKS
BISMARCK       CLEAR     66  38  35 SE18      29.67F
DICKINSON      PTCLDY    57  43  59 W5        29.63R
GARRISON         N/A     65  48  54 S13       29.61S
HETTINGER ARPT PTCLDY    63  44  50 S9        29.67S
$$

NDZ004>008-012>016-024-026-027-054-220500-
NORTHEAST NORTH DAKOTA

CITY           SKY/WX    TMP DP  RH WIND       PRES   REMARKS
GRAND FORKS    CLEAR     53  41  63 S21G32    29.86S
GRND FRKS AFB  CLEAR     55  42  61 S20G26    29.85S
DEVILS LAKE    CLEAR     59  41  51 S24G30    29.73F
$$

NDZ022-023-025-028>030-036>039-047>053-220500-
SOUTHEAST NORTH DAKOTA

CITY           SKY/WX    TMP DP  RH WIND       PRES   REMARKS
FARGO          CLEAR     57  41  55 SE25G40   29.91S
JAMESTOWN      PTCLDY    59  44  57 SE16      29.79F
$$




USA.gov is the U.S. government's official web portal to all federal, state and local government web resources and services.